When you browse on this site, cookies collect data to enhance your experience and personalize the content and advertising you see.
Visit our Privacy Policy to learn more. By continuing to use the site, you agree to this use of cookies and data.
  • In Sweden
  • List of Countries
  • For 7 days
  • Water Temperature
  • Satellite Maps
  • Weather Map
  • Weather Widgets
  • user-avatar
    Login

    Hourly Weather Trujillo

    Today, 19 November, Monday

    Time Temperature Precipitation Wind Pressure Humidity
    00:00 +25°C° 0 mm 1 mps 761 mmHg 99%
    01:00 +25°C° 0 mm 1 mps 761 mmHg 99%
    02:00 +25°C° 0 mm 1 mps 760 mmHg 99%
    03:00 +25°C° 0 mm 1 mps 760 mmHg 99%
    04:00 +25°C° 0 mm 1 mps 760 mmHg 99%
    05:00 +24°C° 0 mm 1 mps 761 mmHg 99%
    06:00 +25°C° 0 mm 1 mps 761 mmHg 99%
    07:00 +27°C° 0 mm 1 mps 761 mmHg 91%
    08:00 +29°C° 0 mm 1 mps 761 mmHg 83%
    09:00 +31°C° 0 mm 1 mps 761 mmHg 76%
    10:00 +31°C° 0 mm 1 mps 761 mmHg 72%
    11:00 +32°C° 0 mm 2 mps 760 mmHg 68%
    12:00 +34°C° 0 mm 2 mps 760 mmHg 64%
    13:00 +32°C° 0.2 mm 2 mps 760 mmHg 70%
    14:00 +31°C° 0.2 mm 3 mps 760 mmHg 76%
    15:00 +31°C° 0.2 mm 3 mps 759 mmHg 82%
    16:00 +29°C° 0.3 mm 2 mps 759 mmHg 88%
    17:00 +28°C° 0.3 mm 2 mps 760 mmHg 93%
    18:00 +27°C° 0.3 mm 1 mps 760 mmHg 99%
    19:00 +27°C° 0 mm 1 mps 760 mmHg 99%
    20:00 +26°C° 0 mm 1 mps 761 mmHg 99%
    21:00 +26°C° 0 mm 1 mps 761 mmHg 99%
    22:00 +26°C° 0 mm 1 mps 761 mmHg 99%
    23:00 +26°C° 0 mm 2 mps 761 mmHg 99%

    Tomorrow, 20 November, Tuesday

    Time Temperature Precipitation Wind Pressure Humidity
    00:00 +25°C° 0 mm 2 mps 761 mmHg 99%
    01:00 +25°C° 0.2 mm 2 mps 760 mmHg 99%
    02:00 +25°C° 0.2 mm 2 mps 760 mmHg 99%
    03:00 +25°C° 0.2 mm 2 mps 760 mmHg 99%
    04:00 +25°C° 0.1 mm 2 mps 760 mmHg 99%
    05:00 +24°C° 0.1 mm 2 mps 761 mmHg 99%
    06:00 +24°C° 0.1 mm 2 mps 761 mmHg 99%
    07:00 +26°C° 0.1 mm 2 mps 761 mmHg 92%
    08:00 +28°C° 0.1 mm 1 mps 762 mmHg 86%
    09:00 +30°C° 0.1 mm 1 mps 762 mmHg 80%
    10:00 +30°C° 0.1 mm 1 mps 762 mmHg 78%
    11:00 +31°C° 0.1 mm 2 mps 761 mmHg 77%
    12:00 +31°C° 0.1 mm 2 mps 761 mmHg 76%
    13:00 +31°C° 0.6 mm 2 mps 760 mmHg 81%
    14:00 +30°C° 0.6 mm 2 mps 760 mmHg 86%
    15:00 +29°C° 0.6 mm 2 mps 760 mmHg 92%
    16:00 +28°C° 0.6 mm 2 mps 760 mmHg 94%
    17:00 +28°C° 0.6 mm 2 mps 760 mmHg 96%
    18:00 +27°C° 0.6 mm 2 mps 761 mmHg 99%
    19:00 +27°C° 0.4 mm 2 mps 761 mmHg 99%
    20:00 +26°C° 0.4 mm 2 mps 762 mmHg 99%
    21:00 +26°C° 0.4 mm 2 mps 763 mmHg 99%
    22:00 +26°C° 0.5 mm 1 mps 763 mmHg 99%
    23:00 +26°C° 0.5 mm 1 mps 762 mmHg 99%

    Day after tomorrow, 21 November, Wednesday

    Time Temperature Precipitation Wind Pressure Humidity
    00:00 +26°C° 0.5 mm 1 mps 762 mmHg 99%
    01:00 +26°C° 0.1 mm 1 mps 762 mmHg 99%
    02:00 +25°C° 0.1 mm 1 mps 762 mmHg 99%
    03:00 +25°C° 0.1 mm 1 mps 761 mmHg 99%
    04:00 +25°C° 0.1 mm 1 mps 762 mmHg 99%
    05:00 +25°C° 0.1 mm 1 mps 762 mmHg 99%
    06:00 +25°C° 0.1 mm 2 mps 762 mmHg 99%
    07:00 +27°C° 0 mm 1 mps 762 mmHg 92%
    08:00 +28°C° 0 mm 1 mps 763 mmHg 85%
    09:00 +30°C° 0 mm 1 mps 763 mmHg 78%
    10:00 +31°C° 0 mm 1 mps 763 mmHg 70%
    11:00 +34°C° 0 mm 2 mps 762 mmHg 61%
    12:00 +35°C° 0 mm 2 mps 762 mmHg 53%
    13:00 +34°C° 0 mm 2 mps 761 mmHg 57%
    14:00 +34°C° 0 mm 3 mps 760 mmHg 62%
    15:00 +33°C° 0 mm 3 mps 760 mmHg 66%
    16:00 +30°C° 0.1 mm 3 mps 760 mmHg 77%
    17:00 +28°C° 0.1 mm 2 mps 761 mmHg 88%
    18:00 +26°C° 0.1 mm 2 mps 761 mmHg 99%
    19:00 +26°C° 0.1 mm 2 mps 762 mmHg 99%
    20:00 +26°C° 0.1 mm 2 mps 762 mmHg 99%
    21:00 +26°C° 0.1 mm 2 mps 763 mmHg 99%
    22:00 +26°C° 0.2 mm 1 mps 763 mmHg 99%
    23:00 +25°C° 0.2 mm 1 mps 762 mmHg 99%

    22 November, Thursday

    Time Temperature Precipitation Wind Pressure Humidity
    00:00 +25°C° 0.2 mm 1 mps 762 mmHg 99%
    01:00 +25°C° 0.1 mm 1 mps 762 mmHg 99%
    02:00 +24°C° 0.1 mm 2 mps 761 mmHg 99%
    03:00 +24°C° 0.1 mm 2 mps 761 mmHg 98%
    04:00 +24°C° 0.1 mm 2 mps 761 mmHg 98%
    05:00 +24°C° 0.1 mm 2 mps 761 mmHg 98%
    06:00 +24°C° 0.1 mm 2 mps 762 mmHg 98%
    07:00 +26°C° 0.1 mm 2 mps 762 mmHg 90%
    08:00 +28°C° 0.1 mm 2 mps 762 mmHg 81%
    09:00 +31°C° 0.1 mm 2 mps 763 mmHg 72%
    10:00 +31°C° 0.4 mm 2 mps 762 mmHg 70%
    11:00 +32°C° 0.4 mm 2 mps 762 mmHg 67%
    12:00 +32°C° 0.4 mm 2 mps 761 mmHg 65%
    13:00 +32°C° 0.8 mm 2 mps 760 mmHg 70%
    14:00 +31°C° 0.8 mm 2 mps 760 mmHg 75%
    15:00 +30°C° 0.8 mm 2 mps 759 mmHg 80%
    16:00 +29°C° 0.2 mm 2 mps 760 mmHg 86%
    17:00 +27°C° 0.2 mm 1 mps 760 mmHg 92%
    18:00 +26°C° 0.2 mm 1 mps 760 mmHg 98%
    19:00 +26°C° 0.1 mm 1 mps 761 mmHg 98%
    20:00 +25°C° 0.1 mm 1 mps 761 mmHg 99%
    21:00 +25°C° 0.1 mm 1 mps 762 mmHg 99%
    22:00 +25°C° 0.1 mm 1 mps 762 mmHg 99%
    23:00 +25°C° 0.1 mm 1 mps 761 mmHg 99%

    23 November, Friday

    Time Temperature Precipitation Wind Pressure Humidity
    00:00 +25°C° 0.1 mm 1 mps 761 mmHg 99%
    01:00 +25°C° 0.1 mm 2 mps 760 mmHg 98%
    02:00 +25°C° 0.1 mm 2 mps 760 mmHg 98%
    03:00 +24°C° 0.1 mm 2 mps 759 mmHg 98%
    04:00 +24°C° 0.1 mm 2 mps 760 mmHg 99%
    05:00 +24°C° 0.1 mm 2 mps 760 mmHg 99%
    06:00 +23°C° 0.1 mm 2 mps 760 mmHg 99%
    07:00 +26°C° 0 mm 2 mps 760 mmHg 88%
    08:00 +28°C° 0 mm 2 mps 761 mmHg 77%
    09:00 +31°C° 0 mm 2 mps 761 mmHg 67%
    10:00 +32°C° 0 mm 2 mps 760 mmHg 63%
    11:00 +34°C° 0 mm 2 mps 760 mmHg 60%
    12:00 +35°C° 0 mm 3 mps 759 mmHg 56%
    13:00 +34°C° 0.2 mm 3 mps 758 mmHg 60%
    14:00 +33°C° 0.2 mm 3 mps 758 mmHg 64%
    15:00 +33°C° 0.2 mm 3 mps 757 mmHg 67%
    16:00 +30°C° 0.2 mm 2 mps 758 mmHg 77%
    17:00 +28°C° 0.2 mm 2 mps 758 mmHg 88%
    18:00 +26°C° 0.2 mm 1 mps 759 mmHg 98%
    19:00 +26°C° 0.1 mm 1 mps 759 mmHg 98%
    20:00 +26°C° 0.1 mm 1 mps 760 mmHg 98%
    21:00 +25°C° 0.1 mm 1 mps 760 mmHg 99%
    22:00 +25°C° 0 mm 1 mps 760 mmHg 99%
    23:00 +25°C° 0 mm 2 mps 759 mmHg 99%

    24 November, Saturday

    Time Temperature Precipitation Wind Pressure Humidity
    00:00 +24°C° 0 mm 2 mps 759 mmHg 99%
    01:00 +24°C° 0 mm 2 mps 759 mmHg 99%
    02:00 +23°C° 0 mm 2 mps 758 mmHg 99%
    03:00 +23°C° 0 mm 2 mps 758 mmHg 98%
    04:00 +23°C° 0 mm 2 mps 758 mmHg 98%
    05:00 +21°C° 0 mm 2 mps 759 mmHg 97%
    06:00 +21°C° 0 mm 2 mps 759 mmHg 97%
    07:00 +25°C° 0 mm 2 mps 759 mmHg 84%
    08:00 +28°C° 0 mm 2 mps 760 mmHg 70%
    09:00 +32°C° 0 mm 1 mps 760 mmHg 57%
    10:00 +34°C° 0 mm 2 mps 759 mmHg 53%
    11:00 +35°C° 0 mm 2 mps 758 mmHg 49%
    12:00 +37°C° 0 mm 2 mps 758 mmHg 45%
    13:00 +36°C° 0 mm 3 mps 757 mmHg 51%
    14:00 +34°C° 0 mm 3 mps 757 mmHg 58%
    15:00 +33°C° 0 mm 4 mps 756 mmHg 64%
    16:00 +30°C° 0 mm 4 mps 757 mmHg 75%
    17:00 +28°C° 0 mm 4 mps 757 mmHg 85%
    18:00 +27°C° 0 mm 4 mps 758 mmHg 96%
    19:00 +27°C° 0 mm 3 mps 758 mmHg 97%
    20:00 +26°C° 0 mm 3 mps 759 mmHg 98%
    21:00 +26°C° 0 mm 3 mps 759 mmHg 98%
    22:00 +26°C° 0 mm 3 mps 759 mmHg 98%
    23:00 +26°C° 0 mm 3 mps 759 mmHg 98%
    Show more